Weather History for Cross City, FL

Change the Weather History Date:

Friday, March 15, 2013

  Actual Average Record
Temperature  
Mean Temperature 53 °F 62 °F  
Max Temperature 74 °F 76 °F 87 °F (2012)
Min Temperature 32 °F 48 °F 32 °F (2013)
Degree Days  
Heating Degree Days 12 4  
Month to date heating degree days 170 83  
Since 1 July heating degree days 980 1203  
Cooling Degree Days 0 1  
Month to date cooling degree days 2 15  
Year to date cooling degree days 98 42  
Growing Degree Days 3 (Base 50)    
Moisture  
Dew Point 33 °F    
Average Humidity 53    
Maximum Humidity 82    
Minimum Humidity 23    
Precipitation  
Precipitation 0.00 in 0.13 in 1.00 in (2001)
Month to date precipitation 0.16 2.01  
Year to date precipitation 3.67 9.32  
Sea Level Pressure  
Sea Level Pressure 30.24 in    
Wind  
Wind Speed 4 mph (West)    
Max Wind Speed 18 mph    
Max Gust Speed 23 mph    
T = Trace of Precipitation, MM = Missing Value Source: NWS Daily Summary

Daily Weather History Graph

Daily Weather History Graph

Search for Another Location

Airport:

Trip Planner

Search our weather history database for the weather conditions in past years. The results will help you decide how hot, cold, wet, or windy it might be!

Date:

Astronomy

Mar. 15, 2013 Rise Set
Actual Time 7:41 AM EDT 7:40 PM EDT
Civil Twilight 7:18 AM EDT 8:04 PM EDT
Nautical Twilight 6:50 AM EDT 8:32 PM EDT
Astronomical Twilight 6:22 AM EDT 9:00 PM EDT
Moon 9:51 AM EDT (3/15) 11:32 PM EDT (3/15)
Length of Visible Light 12h 46m
Length of Day
11h 59m
Waxing Crescent, 15% of the Moon is Illuminated
Mar 15
Waxing Crescent
Mar 19
First Quarter
Mar 27
Full
Apr 3
Last Quarter
Apr 10
New

Hourly Weather History & Observations

Time (EDT) Temp. Windchill Dew Point Humidity Pressure Visibility Wind Dir Wind Speed Gust Speed Precip Events Conditions
12:53 AM 39.0 °F - 30.0 °F 70% 30.29 in - Calm Calm - N/A   Unknown
1:53 AM 37.0 °F - 30.0 °F 76% 30.29 in - Calm Calm - N/A   Unknown
2:53 AM 35.1 °F - 28.9 °F 78% 30.27 in - Calm Calm - N/A   Unknown
3:53 AM 34.0 °F - 28.0 °F 79% 30.26 in - Calm Calm - N/A   Unknown
4:53 AM 34.0 °F - 28.0 °F 79% 30.24 in - Calm Calm - N/A   Unknown
5:53 AM 33.1 °F - 28.0 °F 82% 30.26 in - Calm Calm - N/A   Unknown
6:53 AM 33.1 °F - 28.0 °F 82% 30.28 in - Calm Calm - N/A   Unknown
7:53 AM 33.1 °F 30.0 °F 28.0 °F 82% 30.29 in - Variable 3.5 mph - N/A   Unknown
8:53 AM 41.0 °F - 34.0 °F 76% 30.30 in - Calm Calm - N/A   Unknown
9:53 AM 54.0 °F - 30.0 °F 40% 30.31 in - NE 4.6 mph - N/A   Unknown
10:53 AM 62.1 °F - 28.9 °F 29% 30.30 in - NE 4.6 mph - N/A   Unknown
11:53 AM 66.9 °F - 28.9 °F 24% 30.29 in - NE 4.6 mph - N/A   Unknown
12:53 PM 69.1 °F - 30.9 °F 24% 30.27 in - Variable 6.9 mph - N/A   Unknown
1:53 PM 72.0 °F - 33.1 °F 24% 30.24 in - NNE 5.8 mph - N/A   Unknown
2:53 PM 73.9 °F - 34.0 °F 23% 30.21 in - Variable 3.5 mph - N/A   Unknown
3:53 PM 71.1 °F - 33.1 °F 25% 30.19 in - West 9.2 mph - N/A   Unknown
4:53 PM 69.1 °F - 33.1 °F 26% 30.18 in - WSW 12.7 mph - N/A   Unknown
5:53 PM 68.0 °F - 33.1 °F 27% 30.18 in - SW 11.5 mph - N/A   Unknown
6:53 PM 64.9 °F - 34.0 °F 32% 30.18 in - West 9.2 mph - N/A   Unknown
7:53 PM 59.0 °F - 37.0 °F 44% 30.19 in - SW 6.9 mph - N/A   Unknown
8:53 PM 55.9 °F - 39.9 °F 55% 30.19 in - West 3.5 mph - N/A   Unknown
9:53 PM 52.0 °F - 41.0 °F 66% 30.19 in - WSW 3.5 mph - N/A   Unknown
10:53 PM 52.0 °F - 44.1 °F 74% 30.20 in - WSW 3.5 mph - N/A   Unknown
11:53 PM 52.0 °F - 45.0 °F 77% 30.19 in - WSW 3.5 mph - N/A   Unknown